Weather observations for the past three days for
Batesville, Batesville Regional Airport
Metric (Imperial)
Date Time (cdt) Wind (kph) Vis. (km) Weather Sky Cond. Temperature (ºC) Relative Humidity Wind Chill (°C) Heat Index (°C) Pressure Precipitation (cm)
Air Dwpt 6 hour altimeter (cm) sea level (mb) 1 hr 3 hr 6 hr
Max. Min.
02 17:56 NW 13 G 26 16.09 Fair CLR 20.6 0 25% 76.35 1018.0
02 16:56 NW 19 G 31 16.09 Fair CLR 21.1 0.6 26% 76.35 1017.7
02 15:56 NW 13 16.09 A Few Clouds FEW090 21.1 1.1 27% 76.35 1017.9
02 14:56 NW 15 G 28 16.09 A Few Clouds FEW085 21.7 2.2 28% 76.38 1018.3
02 13:56 NW 17 G 31 16.09 Fair CLR 20.6 3.3 32% 76.4 1018.6
02 12:56 NW 15 G 28 16.09 Fair CLR 20.6 4.4 20.6 6.7 35% 76.45 1019.3
02 11:56 NW 13 16.09 Fair CLR 18.9 3.3 36% 76.48 1019.6
02 10:56 W 13 16.09 Fair CLR 17.2 5.6 47% 76.5 1019.8
02 09:56 W 17 16.09 Fair CLR 16.1 5.6 50% 76.48 1019.7
02 08:56 SW 6 16.09 A Few Clouds FEW095 12.2 5.6 64% 76.48 1019.7
02 07:56 W 6 16.09 Fair CLR 9.4 6.1 80% 76.48 1019.6
02 06:56 NW 6 16.09 A Few Clouds FEW080 6.7 5 10 6.1 89% 76.43 1019.0
02 05:56 NW 7 16.09 Fair CLR 6.1 5.6 97% 5 76.38 1018.2
02 04:56 Calm 16.09 Fair CLR 6.1 5.6 97% 76.35 1017.9
02 03:56 Calm 16.09 Fair CLR 7.2 6.1 93% 76.35 1017.8
02 02:56 Calm 16.09 Fair CLR 8.3 6.1 86% 76.33 1017.6
02 01:56 NW 6 16.09 Fair CLR 8.9 6.7 86% 76.38 1018.1
02 00:56 Calm 16.09 Fair CLR 10 6.7 17.8 10 80% 76.4 1018.6
01 23:56 Calm 16.09 Fair CLR 11.1 6.7 75% 76.38 1018.1
01 22:56 Calm 16.09 Fair CLR 11.1 6.1 72% 76.35 1017.9
01 21:56 E 6 16.09 Fair CLR 12.2 6.7 69% 76.38 1018.1
01 20:56 Calm 16.09 Fair CLR 13.3 6.7 65% 76.35 1018.1
01 19:56 Calm 16.09 Fair CLR 15 2.8 44% 76.3 1017.2
01 18:56 Vrbl 6 16.09 Fair CLR 17.8 1.1 20.6 17.8 33% 76.2 1015.9
01 17:56 Vrbl 11 16.09 Fair CLR 18.9 0.6 29% 76.17 1015.5
01 16:56 Vrbl 7 16.09 Fair CLR 20 1.7 30% 76.15 1015.3
01 15:56 Vrbl 9 16.09 Fair CLR 20 1.1 28% 76.15 1015.1
01 14:56 N 15 16.09 Fair CLR 19.4 0.6 29% 76.28 1016.7
01 13:56 Vrbl 11 16.09 Fair CLR 19.4 1.7 31% 76.35 1017.8
01 12:56 Vrbl 9 16.09 Fair CLR 18.3 2.8 18.9 9.4 36% 76.43 1018.7
01 11:56 NE 11 16.09 Fair CLR 17.2 5 45% 76.43 1018.9
01 10:56 E 15 16.09 Fair CLR 16.7 5 46% 76.45 1019.2
01 09:56 NE 17 16.09 Fair CLR 15 3.3 46% 76.48 1019.6
01 08:56 Vrbl 6 16.09 Fair CLR 13.3 8.9 75% 76.45 1019.3
01 07:56 NW 7 16.09 Fair CLR 11.1 8.9 86% 76.4 1018.8
01 06:56 Vrbl 6 16.09 Fair CLR 9.4 7.8 10.6 8.3 90% 76.4 1018.6
01 05:56 NW 6 16.09 Fair CLR 8.3 7.2 93% 76.35 1017.8
01 04:56 NW 6 16.09 Fair CLR 8.3 7.8 97% 76.33 1017.4
01 03:56 NW 6 16.09 Fair CLR 8.9 7.8 93% 76.28 1016.8
01 02:56 NW 6 16.09 Fair CLR 9.4 8.3 93% 76.28 1016.7
01 01:56 NW 6 16.09 Fair CLR 9.4 8.9 97% 76.3 1017.0
01 00:56 Calm 16.09 Fair CLR 10.6 9.4 16.7 10.6 92% 76.3 1017.2
30 23:56 NW 6 16.09 Fair CLR 11.1 9.4 89% 76.3 1017.1
30 22:56 W 6 16.09 Fair CLR 11.7 9.4 86% 76.33 1017.5
30 21:56 Calm 16.09 Fair CLR 11.7 9.4 86% 76.3 1017.2
30 20:56 Calm 16.09 Fair CLR 12.8 8.3 74% 76.25 1016.6
30 19:56 Calm 16.09 Fair CLR 13.3 7.2 67% 76.25 1016.5
30 18:56 Vrbl 7 16.09 Fair CLR 16.7 5.6 18.3 16.7 48% 76.23 1016.2
30 17:56 E 9 16.09 Fair CLR 17.2 5 45% 76.25 1016.7
30 16:56 E 11 16.09 Fair CLR 17.2 5.6 47% 76.25 1016.3
30 15:56 NE 11 16.09 Fair CLR 17.2 5 45% 76.28 1016.7
30 14:56 E 11 16.09 Fair CLR 17.8 5 43% 76.33 1017.5
30 13:56 Vrbl 6 16.09 Fair CLR 17.8 4.4 41% 76.35 1017.8
30 12:56 E 15 16.09 Fair CLR 17.2 4.4 17.8 9.4 43% 76.4 1018.7
30 11:56 E 17 16.09 Fair CLR 17.2 5 45% 76.45 1019.1
30 10:56 NE 13 16.09 Fair CLR 16.1 3.9 44% 76.45 1019.0
30 09:56 E 17 16.09 Fair CLR 15.6 3.3 44% 76.43 1018.8
30 08:56 E 13 16.09 Fair CLR 13.9 5 55% 76.43 1018.8
30 07:56 NE 7 16.09 Fair CLR 11.7 6.1 69% 76.43 1018.9
30 06:56 NE 6 16.09 Fair CLR 9.4 6.7 13.3 8.9 83% 76.43 1018.9
30 05:56 N 6 16.09 Fair CLR 9.4 7.2 86% 76.4 1018.5
30 04:56 Calm 16.09 Fair CLR 10 7.2 83% 76.38 1018.2
30 03:56 NW 6 16.09 Fair CLR 10.6 7.8 83% 76.35 1017.7
30 02:56 Vrbl 6 16.09 Fair CLR 12.8 7.2 69% 76.33 1017.5
30 01:56 NE 11 16.09 Fair CLR 13.3 7.2 67% 76.3 1017.2
30 00:56 Calm 16.09 Fair CLR 13.3 8.3 19.4 13.3 72% 76.33 1017.6
29 23:56 Vrbl 6 16.09 Fair CLR 14.4 8.3 67% 76.3 1017.1
29 22:56 N 7 16.09 Fair CLR 15.6 8.3 62% 76.3 1017.1
29 21:56 Calm 16.09 Fair CLR 15.6 9.4 67% 76.28 1016.8
29 20:56 N 6 16.09 Fair CLR 16.7 9.4 62% 76.17 1015.7
29 19:56 Vrbl 7 16.09 Fair CLR 17.8 9.4 58% 76.1 1014.5
29 18:56 Vrbl 6 16.09 Fair CLR 19.4 10.6 22.2 19.4 57% 76.1 1014.6
Date Time (cdt) Wind (kph) Vis. (km) Weather Sky Cond. Air Dwpt Max. Min. Relative Humidity Wind Chill (°C) Heat Index (°C) altimeter (cm) sea level (mb) 1 hr 3 hr 6 hr
6 hour
Temperature (ºC) Pressure Precipitation (cm)